Clinton, OK

1:00 AM CDT on April 25, 2018 (GMT -0500)
Clinton Municipal

Weather History for KCLK - July, 2013

Change the Weather History Date:

Sunday, July 7, 2013

  Actual Average (KCSM) Record (KCSM)
Temperature  
Mean Temperature 84 °F -  
Max Temperature 96 °F 92 °F 108 °F (2011)
Min Temperature 71 °F 69 °F 64 °F (2015)
Cooling Degree Days 18    
Growing Degree Days 34 (Base 50)    
Moisture  
Dew Point 52 °F    
Average Humidity 35    
Maximum Humidity 57    
Minimum Humidity 16    
Precipitation  
Precipitation 0.00 in - - ()
Sea Level Pressure  
Sea Level Pressure 29.98 in    
Wind  
Wind Speed 13 mph (SSE)    
Max Wind Speed 21 mph    
Max Gust Speed 29 mph    
Visibility 10 miles    
Events      
Averages and records for this station are not official NWS values.
T = Trace of Precipitation, MM = Missing Value Source: NWS Daily Summary

Daily Weather History Graph

Daily Weather History Graph

Search for Another Location

Airport or City:

Astronomy

Jul. 07, 2013 Rise Set
Actual Time 6:27 AM CDT 8:54 PM CDT
Civil Twilight 5:57 AM CDT 9:23 PM CDT
Nautical Twilight 5:20 AM CDT 10:00 PM CDT
Astronomical Twilight 4:40 AM CDT 10:40 PM CDT
Moon 6:02 AM CDT (7/7) 8:21 PM CDT (7/7)
Length of Visible Light 15h 26m
Length of Day
14h 27m
Waning Crescent, 0% of the Moon is Illuminated
Jul 7
Waning Crescent
Jul 8
New
Jul 15
First Quarter
Jul 22
Full
Jul 29
Last Quarter

Hourly Weather History & Observations

Time (CDT) Temp. Heat Index Dew Point Humidity Pressure Visibility Wind Dir Wind Speed Gust Speed Precip Events Conditions
12:15 AM 80.6 °F 80.3 °F 53.6 °F 39% 29.96 in 10.0 mi SE 15.0 mph 18.4 mph N/A   Unknown
12:35 AM 78.8 °F - 53.6 °F 42% 29.96 in 10.0 mi SE 13.8 mph - N/A   Unknown
12:55 AM 78.8 °F - 53.6 °F 42% 29.96 in 10.0 mi SE 12.7 mph - N/A   Unknown
1:15 AM 77.0 °F - 55.4 °F 47% 29.96 in 10.0 mi SSE 11.5 mph - N/A   Unknown
1:35 AM 77.0 °F - 55.4 °F 47% 29.96 in 10.0 mi SSE 12.7 mph - N/A   Unknown
1:55 AM 77.0 °F - 57.2 °F 50% 29.96 in 10.0 mi SSE 12.7 mph 17.3 mph N/A   Unknown
2:15 AM 77.0 °F - 57.2 °F 50% 29.96 in 10.0 mi SSE 13.8 mph - N/A   Unknown
2:35 AM 77.0 °F - 57.2 °F 50% 29.96 in 10.0 mi SSE 11.5 mph - N/A   Unknown
2:55 AM 77.0 °F - 57.2 °F 50% 29.96 in 10.0 mi SSE 11.5 mph - N/A   Unknown
3:15 AM 75.2 °F - 57.2 °F 53% 29.95 in 10.0 mi SSE 10.4 mph - N/A   Unknown
3:35 AM 75.2 °F - 57.2 °F 53% 29.95 in 10.0 mi SSE 10.4 mph - N/A   Unknown
3:55 AM 75.2 °F - 57.2 °F 53% 29.95 in 10.0 mi SSE 10.4 mph - N/A   Unknown
4:15 AM 75.2 °F - 55.4 °F 50% 29.95 in 10.0 mi SSE 10.4 mph - N/A   Unknown
4:35 AM 75.2 °F - 55.4 °F 50% 29.94 in 10.0 mi SSE 10.4 mph - N/A   Unknown
4:55 AM 73.4 °F - 55.4 °F 53% 29.95 in 10.0 mi SSE 10.4 mph - N/A   Unknown
5:15 AM 73.4 °F - 55.4 °F 53% 29.95 in 10.0 mi SSE 10.4 mph - N/A   Unknown
5:35 AM 73.4 °F - 55.4 °F 53% 29.96 in 10.0 mi SSE 9.2 mph - N/A   Unknown
5:55 AM 71.6 °F - 55.4 °F 57% 29.97 in 10.0 mi SSE 9.2 mph - N/A   Unknown
6:15 AM 71.6 °F - 55.4 °F 57% 29.98 in 10.0 mi SSE 8.1 mph - N/A   Unknown
6:35 AM 71.6 °F - 55.4 °F 57% 29.99 in 10.0 mi SSE 8.1 mph - N/A   Unknown
6:55 AM 71.6 °F - 55.4 °F 57% 29.99 in 10.0 mi SSE 10.4 mph - N/A   Unknown
7:15 AM 71.6 °F - 55.4 °F 57% 29.99 in 10.0 mi SSE 10.4 mph - N/A   Unknown
7:35 AM 71.6 °F - 55.4 °F 57% 29.99 in 10.0 mi SSE 9.2 mph - N/A   Unknown
7:55 AM 71.6 °F - 55.4 °F 57% 30.00 in 10.0 mi SSE 8.1 mph - N/A   Unknown
8:15 AM 73.4 °F - 55.4 °F 53% 30.00 in 10.0 mi SSE 10.4 mph - N/A   Unknown
8:35 AM 73.4 °F - 55.4 °F 53% 30.00 in 10.0 mi SSE 8.1 mph - N/A   Unknown
8:55 AM 75.2 °F - 55.4 °F 50% 30.01 in 10.0 mi SSE 8.1 mph - N/A   Unknown
9:15 AM 77.0 °F - 55.4 °F 47% 30.02 in 10.0 mi South 11.5 mph - N/A   Unknown
9:35 AM 80.6 °F 80.5 °F 55.4 °F 42% 30.02 in 10.0 mi South 11.5 mph 17.3 mph N/A   Unknown
9:55 AM 82.4 °F 81.7 °F 55.4 °F 39% 30.02 in 10.0 mi South 15.0 mph 21.9 mph N/A   Unknown
10:15 AM 86.0 °F 84.5 °F 55.4 °F 35% 30.01 in 10.0 mi South 16.1 mph 20.7 mph N/A   Unknown
10:35 AM 86.0 °F 84.5 °F 55.4 °F 35% 30.01 in 10.0 mi South 16.1 mph 21.9 mph N/A   Unknown
10:55 AM 87.8 °F 85.7 °F 53.6 °F 31% 30.01 in 10.0 mi South 18.4 mph 23.0 mph N/A   Unknown
11:15 AM 89.6 °F - 51.8 °F 27% 30.01 in 10.0 mi South 18.4 mph 23.0 mph N/A   Unknown
11:35 AM 89.6 °F - 51.8 °F 27% 30.00 in 10.0 mi South 13.8 mph 23.0 mph N/A   Unknown
11:55 AM 91.4 °F - 50.0 °F 24% 30.00 in 10.0 mi South 12.7 mph 23.0 mph N/A   Unknown
12:15 PM 91.4 °F - 50.0 °F 24% 30.00 in 10.0 mi SSW 9.2 mph 19.6 mph N/A   Unknown
12:35 PM 91.4 °F - 48.2 °F 23% 30.00 in 10.0 mi South 16.1 mph 23.0 mph N/A   Unknown
12:55 PM 93.2 °F - 46.4 °F 20% 30.00 in 10.0 mi South 13.8 mph 18.4 mph N/A   Unknown
1:15 PM 95.0 °F - 46.4 °F 19% 29.99 in 10.0 mi SSW 10.4 mph 18.4 mph N/A   Unknown
1:35 PM 95.0 °F - 46.4 °F 19% 29.99 in 10.0 mi South 16.1 mph 23.0 mph N/A   Unknown
1:55 PM 95.0 °F - 46.4 °F 19% 29.99 in 10.0 mi South 18.4 mph 23.0 mph N/A   Unknown
2:15 PM 95.0 °F - 46.4 °F 19% 29.98 in 10.0 mi South 13.8 mph 17.3 mph N/A   Unknown
2:35 PM 96.8 °F - 44.6 °F 17% 29.97 in 10.0 mi South 15.0 mph - N/A   Unknown
2:55 PM 96.8 °F - 44.6 °F 17% 29.97 in 10.0 mi South 12.7 mph 28.8 mph N/A   Unknown
3:15 PM 96.8 °F - 42.8 °F 16% 29.97 in 10.0 mi SSE 11.5 mph 26.5 mph N/A   Unknown
3:35 PM 96.8 °F - 42.8 °F 16% 29.96 in 10.0 mi SSE 16.1 mph 21.9 mph N/A   Unknown
3:55 PM 96.8 °F - 44.6 °F 17% 29.96 in 10.0 mi SE 12.7 mph - N/A   Unknown
4:15 PM 96.8 °F - 46.4 °F 18% 29.96 in 10.0 mi SSE 11.5 mph 21.9 mph N/A   Unknown
4:35 PM 96.8 °F - 46.4 °F 18% 29.96 in 10.0 mi South 15.0 mph 24.2 mph N/A   Unknown
4:55 PM 96.8 °F - 44.6 °F 17% 29.95 in 10.0 mi ESE 11.5 mph 21.9 mph N/A   Unknown
5:15 PM 96.8 °F - 44.6 °F 17% 29.95 in 10.0 mi South 16.1 mph 24.2 mph N/A   Unknown
5:35 PM 96.8 °F - 44.6 °F 17% 29.94 in 10.0 mi South 15.0 mph 20.7 mph N/A   Unknown
5:55 PM 96.8 °F - 46.4 °F 18% 29.94 in 10.0 mi SSE 13.8 mph - N/A   Unknown
6:15 PM 96.8 °F - 48.2 °F 19% 29.93 in 10.0 mi SSE 20.7 mph 24.2 mph N/A   Unknown
6:35 PM 96.8 °F - 48.2 °F 19% 29.94 in 10.0 mi South 17.3 mph 26.5 mph N/A   Unknown
6:55 PM 95.0 °F - 48.2 °F 20% 29.94 in 10.0 mi SSE 16.1 mph 24.2 mph N/A   Unknown
7:15 PM 95.0 °F - 48.2 °F 20% 29.94 in 10.0 mi SSE 17.3 mph - N/A   Unknown
7:35 PM 93.2 °F - 50.0 °F 23% 29.95 in 10.0 mi SSE 17.3 mph 23.0 mph N/A   Unknown
7:55 PM 91.4 °F - 48.2 °F 23% 29.96 in 10.0 mi SSE 17.3 mph - N/A   Unknown
8:15 PM 91.4 °F - 48.2 °F 23% 29.96 in 10.0 mi SSE 17.3 mph - N/A   Unknown
8:35 PM 89.6 °F - 46.4 °F 22% 29.96 in 10.0 mi SSE 13.8 mph 18.4 mph N/A   Unknown
8:55 PM 87.8 °F - 48.2 °F 25% 29.97 in 10.0 mi SSE 15.0 mph 18.4 mph N/A   Unknown
9:15 PM 87.8 °F - 51.8 °F 29% 29.98 in 10.0 mi SSE 16.1 mph 20.7 mph N/A   Unknown
9:35 PM 86.0 °F - 51.8 °F 31% 29.98 in 10.0 mi SSE 13.8 mph - N/A   Unknown
9:55 PM 86.0 °F 84.2 °F 53.6 °F 33% 29.99 in 10.0 mi SSE 16.1 mph - N/A   Unknown
10:15 PM 84.2 °F 82.8 °F 53.6 °F 35% 30.00 in 10.0 mi SE 15.0 mph 20.7 mph N/A   Unknown
10:35 PM 82.4 °F 81.4 °F 53.6 °F 37% 30.00 in 10.0 mi SSE 15.0 mph - N/A   Unknown
10:55 PM 82.4 °F 81.4 °F 53.6 °F 37% 30.01 in 10.0 mi SSE 15.0 mph 20.7 mph N/A   Unknown
11:15 PM 82.4 °F 81.4 °F 53.6 °F 37% 30.02 in 10.0 mi SSE 13.8 mph - N/A   Unknown
11:35 PM 80.6 °F 80.3 °F 53.6 °F 39% 30.02 in 10.0 mi SSE 11.5 mph - N/A   Unknown
11:55 PM 80.6 °F 80.3 °F 53.6 °F 39% 30.02 in 10.0 mi SE 15.0 mph - N/A   Unknown